Weather History for Slayton, MN

Change the Weather History Date:

Wednesday, January 9, 2013

  Actual Average (KOTG) Record (KOTG)
Temperature  
Mean Temperature 28 °F -  
Max Temperature 33 °F 21 °F 50 °F (2002)
Min Temperature 23 °F 7 °F -22 °F (1977)
Degree Days  
Heating Degree Days 37    
Moisture  
Dew Point 25 °F    
Average Humidity 83    
Maximum Humidity 94    
Minimum Humidity 69    
Precipitation  
Precipitation 0.00 in - - ()
Sea Level Pressure  
Sea Level Pressure 30.20 in    
Wind  
Wind Speed 13 mph (SW)    
Max Wind Speed 24 mph    
Max Gust Speed 29 mph    
Visibility 10 miles    
Events      
Averages and records for this station are not official NWS values.
T = Trace of Precipitation, MM = Missing Value Source: NWS Daily Summary

Daily Weather History Graph

Daily Weather History Graph

Search for Another Location

Airport:

Trip Planner

Search our weather history database for the weather conditions in past years. The results will help you decide how hot, cold, wet, or windy it might be!

Date:

Astronomy

Jan. 09, 2013 Rise Set
Actual Time 7:56 AM CST 5:04 PM CST
Civil Twilight 7:24 AM CST 5:36 PM CST
Nautical Twilight 6:48 AM CST 6:12 PM CST
Astronomical Twilight 6:13 AM CST 6:47 PM CST
Moon 5:37 AM CST (1/9) 3:06 PM CST (1/9)
Length of Visible Light 10h 12m
Length of Day
9h 07m
Waning Crescent, 6% of the Moon is Illuminated
Jan 9
Waning Crescent
Jan 11
New
Jan 18
First Quarter
Jan 26
Full
Feb 3
Last Quarter

Hourly Weather History & Observations

Time (CST) Temp. Windchill Dew Point Humidity Pressure Visibility Wind Dir Wind Speed Gust Speed Precip Events Conditions
12:15 AM 30.7 °F 20.9 °F 27.5 °F 88% 30.00 in 10.0 mi West 12.7 mph - N/A   Scattered Clouds
12:35 AM 32.0 °F 23.0 °F 29.3 °F 90% 30.02 in 10.0 mi West 11.5 mph - N/A   Mostly Cloudy
12:55 AM 32.0 °F 23.6 °F 29.1 °F 89% 30.02 in 10.0 mi West 10.4 mph - N/A   Mostly Cloudy
1:15 AM 31.5 °F 21.8 °F 28.4 °F 88% 30.02 in 10.0 mi WSW 12.7 mph - N/A   Scattered Clouds
1:35 AM 30.0 °F 19.1 °F 28.0 °F 92% 30.03 in 10.0 mi WSW 15.0 mph - N/A   Scattered Clouds
1:54 AM 29.3 °F 18.6 °F 27.5 °F 93% 30.04 in 10.0 mi WSW 13.8 mph - N/A   Clear
2:14 AM 29.5 °F 19.3 °F 27.5 °F 92% 30.05 in 10.0 mi West 12.7 mph - N/A   Clear
2:35 AM 31.1 °F 20.9 °F 28.0 °F 88% 30.06 in 10.0 mi West 13.8 mph - N/A   Clear
2:55 AM 31.1 °F 20.5 °F 27.9 °F 88% 30.07 in 10.0 mi West 15.0 mph 20.7 mph N/A   Clear
3:15 AM 29.3 °F 17.7 °F 26.8 °F 90% 30.07 in 10.0 mi WSW 16.1 mph 20.7 mph N/A   Clear
3:35 AM 29.3 °F 17.7 °F 26.6 °F 90% 30.08 in 10.0 mi West 16.1 mph - N/A   Clear
3:55 AM 28.8 °F 18.4 °F 26.4 °F 91% 30.10 in 10.0 mi West 12.7 mph 20.7 mph N/A   Clear
4:15 AM 28.4 °F 18.0 °F 26.2 °F 92% 30.10 in 10.0 mi West 12.7 mph - N/A   Clear
4:35 AM 29.1 °F 18.9 °F 26.2 °F 89% 30.11 in 10.0 mi West 12.7 mph - N/A   Clear
4:55 AM 29.7 °F 16.4 °F 25.9 °F 86% 30.10 in 10.0 mi West 21.9 mph 26.5 mph N/A   Clear
5:15 AM 30.2 °F 16.5 °F 25.2 °F 82% 30.11 in 10.0 mi West 24.2 mph - N/A   Clear
5:35 AM 30.2 °F 16.5 °F 24.8 °F 80% 30.11 in 10.0 mi West 24.2 mph 28.8 mph N/A   Clear
5:55 AM 29.7 °F 16.4 °F 24.3 °F 80% 30.12 in 10.0 mi West 21.9 mph 27.6 mph N/A   Clear
6:15 AM 29.1 °F 17.1 °F 23.7 °F 80% 30.13 in 10.0 mi West 17.3 mph 23.0 mph N/A   Clear
6:55 AM 28.4 °F 17.0 °F 23.0 °F 80% 30.14 in 10.0 mi WNW 15.0 mph - N/A   Clear
7:15 AM 28.4 °F 16.2 °F 23.0 °F 80% 30.15 in 10.0 mi West 17.3 mph - N/A   Clear
7:35 AM 27.9 °F 16.3 °F 22.1 °F 79% 30.15 in 10.0 mi West 15.0 mph - N/A   Clear
7:55 AM 27.1 °F 15.9 °F 21.2 °F 78% 30.17 in 10.0 mi West 13.8 mph - N/A   Clear
8:15 AM 26.8 °F 15.4 °F 20.8 °F 78% 30.17 in 10.0 mi WNW 13.8 mph - N/A   Clear
8:35 AM 26.6 °F 14.3 °F 21.0 °F 79% 30.19 in 10.0 mi West 16.1 mph - N/A   Clear
8:54 AM 27.3 °F 15.6 °F 21.0 °F 77% 30.18 in 10.0 mi West 15.0 mph - N/A   Clear
9:15 AM 28.2 °F 16.3 °F 21.0 °F 74% 30.20 in 10.0 mi WNW 16.1 mph - N/A   Clear
9:35 AM 28.4 °F 17.0 °F 21.2 °F 74% 30.20 in 10.0 mi WNW 15.0 mph - N/A   Clear
9:55 AM 29.3 °F 18.6 °F 21.4 °F 72% 30.22 in 10.0 mi West 13.8 mph - N/A   Clear
10:15 AM 30.0 °F 20.0 °F 21.7 °F 71% 30.26 in 10.0 mi WSW 12.7 mph - N/A   Clear
10:35 AM 30.2 °F 20.8 °F 23.0 °F 75% 30.27 in 10.0 mi WSW 11.5 mph - N/A   Clear
10:55 AM 31.6 °F 23.1 °F 22.6 °F 69% 30.28 in 10.0 mi West 10.4 mph - N/A   Clear
11:15 AM 32.0 °F 25.6 °F 23.2 °F 70% 30.29 in 10.0 mi WSW 6.9 mph - N/A   Clear
11:35 AM 32.0 °F 24.8 °F 23.7 °F 71% 30.30 in 10.0 mi SW 8.1 mph - N/A   Clear
11:55 AM 32.0 °F 22.5 °F 24.6 °F 74% 30.30 in 10.0 mi SW 12.7 mph - N/A   Clear
12:15 PM 32.5 °F 25.5 °F 24.3 °F 72% 30.30 in 10.0 mi SW 8.1 mph - N/A   Clear
12:35 PM 32.0 °F 24.2 °F 25.3 °F 76% 30.31 in 10.0 mi SW 9.2 mph - N/A   Clear
12:55 PM 32.0 °F 25.6 °F 25.0 °F 75% 30.32 in 10.0 mi SW 6.9 mph - N/A   Clear
1:15 PM 32.0 °F 22.5 °F 26.1 °F 79% 30.31 in 10.0 mi WSW 12.7 mph - N/A   Clear
1:35 PM 32.5 °F 24.2 °F 25.7 °F 76% 30.30 in 10.0 mi SW 10.4 mph - N/A   Clear
1:55 PM 33.1 °F 24.9 °F 26.4 °F 77% 30.31 in 10.0 mi SW 10.4 mph - N/A   Clear
2:15 PM 33.8 °F 26.4 °F 26.4 °F 74% 30.32 in 10.0 mi South 9.2 mph - N/A   Clear
2:35 PM 33.6 °F 29.4 °F 26.8 °F 76% 30.30 in 10.0 mi SSE 4.6 mph - N/A   Clear
2:55 PM 32.2 °F 25.0 °F 27.5 °F 83% 30.30 in 10.0 mi SSE 8.1 mph - N/A   Clear
3:15 PM 32.4 °F 24.6 °F 27.9 °F 83% 30.29 in 10.0 mi SE 9.2 mph - N/A   Clear
3:35 PM 32.0 °F 24.8 °F 27.5 °F 83% 30.29 in 10.0 mi SE 8.1 mph - N/A   Clear
4:15 PM 31.1 °F 21.9 °F 26.6 °F 83% 30.29 in 10.0 mi SSE 11.5 mph - N/A   Clear
4:36 PM 29.7 °F 20.7 °F 25.9 °F 86% 30.28 in 10.0 mi SSE 10.4 mph - N/A   Clear
4:55 PM 30.0 °F 20.5 °F 26.1 °F 85% 30.27 in 10.0 mi SSE 11.5 mph - N/A   Clear
5:15 PM 28.4 °F 19.1 °F 25.3 °F 88% 30.26 in 10.0 mi SSE 10.4 mph - N/A   Clear
5:35 PM 27.1 °F 15.9 °F 24.6 °F 90% 30.26 in 10.0 mi SSE 13.8 mph - N/A   Clear
5:55 PM 27.3 °F 17.7 °F 24.8 °F 90% 30.26 in 10.0 mi SSE 10.4 mph - N/A   Clear
6:14 PM 26.2 °F 15.8 °F 23.9 °F 91% 30.26 in 10.0 mi SSE 11.5 mph - N/A   Clear
6:35 PM 26.6 °F 17.5 °F 23.9 °F 90% 30.27 in 10.0 mi SSE 9.2 mph - N/A   Clear
6:55 PM 24.1 °F 14.4 °F 21.9 °F 91% 30.27 in 10.0 mi SSE 9.2 mph - N/A   Clear
7:15 PM 23.9 °F 13.5 °F 22.3 °F 94% 30.27 in 10.0 mi SSE 10.4 mph - N/A   Clear
7:35 PM 24.3 °F 13.3 °F 22.1 °F 91% 30.26 in 10.0 mi SSE 11.5 mph - N/A   Clear
7:55 PM 24.4 °F 14.2 °F 22.6 °F 93% 30.26 in 10.0 mi SSE 10.4 mph - N/A   Clear
8:35 PM 26.2 °F 16.4 °F 23.4 °F 89% 30.26 in 10.0 mi SSE 10.4 mph - N/A   Clear
8:55 PM 23.5 °F 13.7 °F 21.6 °F 92% 30.25 in 10.0 mi SSE 9.2 mph - N/A   Clear
9:15 PM 24.8 °F 14.6 °F 22.5 °F 91% 30.24 in 10.0 mi South 10.4 mph - N/A   Clear
9:35 PM 26.4 °F 16.0 °F 23.7 °F 90% 30.24 in 10.0 mi South 11.5 mph - N/A   Clear
9:55 PM 29.1 °F 18.4 °F 25.3 °F 86% 30.24 in 10.0 mi South 13.8 mph - N/A   Clear
10:15 PM 31.8 °F 21.4 °F 26.8 °F 82% 30.24 in 10.0 mi South 15.0 mph 19.6 mph N/A   Clear
10:35 PM 32.9 °F 20.4 °F 27.0 °F 79% 30.22 in 10.0 mi SSW 23.0 mph - N/A   Clear
10:55 PM 32.9 °F 21.3 °F 27.5 °F 81% 30.22 in 10.0 mi South 19.6 mph 26.5 mph N/A   Clear
11:15 PM 33.1 °F 20.6 °F 27.5 °F 80% 30.22 in 10.0 mi SSW 23.0 mph - N/A   Clear
11:34 PM 33.1 °F 20.6 °F 27.7 °F 81% 30.22 in 10.0 mi SSW 23.0 mph - N/A   Clear
11:55 PM 32.9 °F 21.0 °F 27.7 °F 81% 30.22 in 10.0 mi SSW 20.7 mph - N/A   Clear